This is the latest recevied weather packets stored in our database for station/object KB5DPX. If no packets are shown the sender has not sent any weather packets the latest 10 day(s).
| Time | Temp. | Humidity | Pressure | Rain* | Wind** | Luminosity | Snow |
|---|---|---|---|---|---|---|---|
| 1778019457 | 10.56° C | 44% | 1007.6 hPa | 0 mm | - | 401 W/m² | - |
| 1778019162 | 10.56° C | 45% | 1007.6 hPa | 0 mm | - | 431 W/m² | - |
| 1778018862 | 10.56° C | 45% | 1007.7 hPa | 0 mm | - | 445 W/m² | - |
| 1778018546 | 10.56° C | 44% | 1007.6 hPa | 0 mm | - | 455 W/m² | - |
| 1778018252 | 10.56° C | 44% | 1007.7 hPa | 0 mm | - | 464 W/m² | - |
| 1778017966 | 10.56° C | 44% | 1007.6 hPa | 0 mm | - | 480 W/m² | - |
| 1778017652 | 10.56° C | 43% | 1007.6 hPa | 0 mm | - | 499 W/m² | - |
| 1778017365 | 10.56° C | 45% | 1007.7 hPa | 0 mm | - | 515 W/m² | - |
| 1778017065 | 10.56° C | 47% | 1007.5 hPa | 0 mm | - | 529 W/m² | - |
| 1778016770 | 11.11° C | 44% | 1007.5 hPa | 0 mm | - | 547 W/m² | - |
| 1778016464 | 11.11° C | 46% | 1007.4 hPa | 0 mm | - | 563 W/m² | - |
| 1778016151 | 10.56° C | 45% | 1007.5 hPa | 0 mm | - | 578 W/m² | - |
| 1778015868 | 11.11° C | 45% | 1007.5 hPa | 0 mm | - | 598 W/m² | - |
| 1778015556 | 11.11° C | 45% | 1007.6 hPa | 0 mm | - | 608 W/m² | - |
| 1778015243 | 11.11° C | 47% | 1007.6 hPa | 0 mm | - | 622 W/m² | - |
| 1778014958 | 11.11° C | 47% | 1007.6 hPa | 0 mm | - | 633 W/m² | - |
| 1778014654 | 10.56° C | 45% | 1007.5 hPa | 0 mm | - | 647 W/m² | - |
| 1778014361 | 10.56° C | 44% | 1007.5 hPa | 0 mm | - | 666 W/m² | - |
| 1778014068 | 10.56° C | 45% | 1007.6 hPa | 0 mm | - | 677 W/m² | - |
| 1778013756 | 10.56° C | 46% | 1007.5 hPa | 0 mm | - | 698 W/m² | - |
| 1778013443 | 10.56° C | 44% | 1007.5 hPa | 0 mm | - | 684 W/m² | - |
| 1778013158 | 10.56° C | 45% | 1007.4 hPa | 0 mm | - | 686 W/m² | - |
| 1778012857 | 10.56° C | 46% | 1007.4 hPa | 0 mm | - | 712 W/m² | - |
| 1778012546 | 10.56° C | 48% | 1007.3 hPa | 0 mm | - | 728 W/m² | - |
| 1778012255 | 10.56° C | 45% | 1007.3 hPa | 0 mm | - | 754 W/m² | - |
* Rain latest hour (hover to see other rain measurements)
** Current wind speed in m/s (hover to see current wind gust speed)